Wind_Speed
9 8 7 6 5 5 5 5 4 4 5 5 6 6 6 6 5 5 6 8 8 8 9 13 17 19 19 20 14 16 15 13 11 7 6 7 8 10 12 14 13 13 13 7 5 3 6
10 9 9 7 7 6 6 5 5 4 4 5 6 6 7 7 7 6 6 6 8 9 10 13 17 19 19 15 16 15 16 12 9 8 2 5 6 7 7 8 6 11 12 5 7 2 4
11 11 10 9 8 8 6 6 5 5 5 5 5 6 7 7 8 8 7 7 7 9 10 12 17 19 19 16 17 17 15 13 9 5 4 4 7 9 4 0 9 15 11 8 6 8 4
11 11 11 10 9 9 7 7 6 5 5 4 5 6 7 7 8 8 9 8 8 8 9 11 14 17 19 17 17 18 17 15 12 8 7 8 10 10 6 4 9 13 12 6 1 6 10
11 12 12 11 11 10 9 8 7 6 5 4 4 5 6 7 7 8 8 10 10 10 10 10 11 13 18 14 13 16 17 18 16 13 11 11 11 13 8 5 10 15 22 12 4 3 11
10 11 12 12 11 11 10 9 8 7 6 5 4 5 6 7 8 9 9 9 10 11 12 11 11 10 10 8 12 12 19 19 17 17 15 13 11 10 5 5 15 21 23 11 7 6 10
9 10 12 12 12 13 12 11 9 8 7 6 5 4 6 8 9 10 10 8 7 7 10 12 13 13 13 13 10 10 15 18 18 16 11 11 10 12 0 9 15 21 16 11 13 13 4
7 9 11 12 12 13 13 12 11 10 8 7 6 5 6 9 11 11 10 10 9 6 8 11 14 13 9 7 11 9 14 15 14 10 14 10 13 2 5 10 17 14 7 11 13 14 15
6 8 10 12 12 13 14 13 12 11 10 8 7 6 6 9 11 12 12 10 6 4 7 9 10 9 8 3 5 9 11 13 13 11 12 12 11 3 6 11 14 8 9 11 13 16 15
6 7 9 11 12 13 14 14 14 13 12 10 9 8 8 9 12 13 12 9 4 4 4 6 10 7 8 5 4 11 10 10 10 9 13 10 7 6 9 9 11 8 9 11 13 15 12
5 6 8 10 12 13 14 14 15 14 13 12 10 9 9 10 12 13 11 9 5 6 3 9 7 6 8 9 11 11 7 8 4 8 11 7 10 10 12 7 7 8 11 11 17 14 15
4 5 6 8 10 12 14 14 15 15 14 13 12 11 11 12 12 10 8 9 8 3 3 8 8 11 17 14 10 11 6 5 3 6 13 5 5 6 9 8 8 12 14 16 12 8 3
3 4 5 7 9 11 12 14 14 15 15 15 14 13 13 12 12 11 10 12 7 3 10 10 6 11 14 13 12 9 6 3 4 5 8 3 5 11 9 6 11 13 12 6 5 5 5
4 4 4 6 7 9 11 12 14 14 16 15 15 14 14 15 14 13 14 17 4 8 7 7 6 9 19 12 8 9 5 4 4 6 1 2 4 16 4 4 1 2 5 2 2 1 9
4 4 4 5 6 7 9 10 12 14 15 15 15 15 16 17 15 15 17 17 4 7 4 12 11 14 16 14 9 12 11 6 4 4 3 0 2 7 9 6 6 4 7 5 4 5 4
3 4 4 4 5 6 7 9 11 12 14 15 15 16 19 16 17 18 19 16 8 9 10 17 10 10 11 14 15 14 11 4 7 10 8 5 3 0 4 2 7 11 15 8 5 1 2
3 3 4 4 4 5 6 8 9 11 13 14 14 17 17 18 18 19 22 18 9 9 10 11 9 10 10 1 17 21 9 5 5 8 12 17 12 4 8 4 9 4 13 9 5 3 4
4 3 3 3 4 4 6 7 8 10 12 14 15 15 15 16 17 21 22 25 11 10 7 7 6 7 6 2 2 22 21 10 11 11 17 19 11 9 2 1 2 5 14 17 6 3 5
4 4 4 3 3 4 5 6 7 10 13 15 18 18 16 16 10 16 17 20 21 11 7 7 7 7 7 6 4 11 11 8 9 12 14 15 5 2 3 7 4 8 14 12 12 7 5
6 5 5 4 3 3 4 4 6 10 14 19 17 18 16 14 12 12 13 17 20 14 12 7 8 10 8 5 7 9 11 10 7 7 7 7 3 1 2 5 11 9 10 7 7 8 4
7 7 6 5 4 3 4 4 5 10 16 22 18 12 13 8 5 11 12 11 15 10 13 9 11 14 11 10 10 10 10 8 11 8 8 7 4 4 5 2 4 5 5 4 8 11 5
8 8 8 7 5 4 4 4 5 9 16 24 15 14 12 6 3 7 15 17 12 6 8 19 16 18 18 13 15 13 9 10 12 13 12 9 6 7 6 6 8 11 11 9 8 9 7
9 9 9 8 7 6 6 6 6 7 13 21 20 14 13 10 5 4 14 19 11 10 8 21 19 16 16 18 15 13 10 8 8 12 13 11 9 8 11 13 14 13 14 16 16 10 8
10 10 10 10 8 7 7 7 8 8 9 16 20 18 15 13 7 5 8 7 7 10 14 12 14 17 15 15 13 11 11 10 10 10 11 10 9 7 6 8 3 16 14 14 12 5 5
11 10 10 11 10 8 8 9 9 10 9 11 17 24 21 14 10 6 4 11 10 13 15 13 12 11 14 13 12 13 14 15 15 15 15 16 17 15 12 15 15 13 8 9 10 7 7
13 12 11 11 10 10 9 9 10 10 11 13 13 18 23 23 18 13 10 9 10 8 10 10 10 12 10 10 12 11 8 13 11 11 14 13 12 14 15 8 6 14 16 15 12 12 1
16 15 13 11 11 11 10 10 10 11 12 14 13 14 19 20 23 21 17 11 10 11 9 9 12 14 15 14 15 14 16 20 14 15 15 15 10 10 14 9 5 8 11 14 15 13 9
17 17 16 13 12 11 10 9 9 11 12 13 13 15 18 22 20 23 24 20 14 13 14 13 13 13 12 14 11 10 7 8 12 18 13 12 7 11 11 10 6 9 9 14 15 15 13
15 18 17 16 14 13 11 9 9 9 11 12 13 14 17 19 17 22 24 22 21 21 18 18 17 17 16 14 12 9 10 9 11 8 9 8 7 6 7 5 7 7 5 5 8 11 13
Wind_Direction
244 244 249 251 249 248 244 251 244 238 239 232 227 219 212 205 179 160 140 149 157 153 160 160 159 160 161 166 166 168 175 162 137 127 75 56 40 37 11 35 52 13 5 360 16 35 142
240 242 243 245 249 250 245 249 253 251 242 237 230 219 214 211 198 187 167 151 158 161 161 161 163 163 163 164 172 176 179 176 155 159 111 353 344 124 92 75 24 355 345 304 300 198 181
233 238 241 243 244 248 245 246 247 251 250 247 235 225 211 210 208 199 191 177 164 167 164 165 171 170 170 169 173 184 183 187 183 183 208 261 279 179 176 84 347 347 350 330 280 248 190
233 239 243 242 241 245 245 243 245 245 247 244 235 221 215 205 204 203 200 195 185 176 175 173 175 180 181 173 169 183 193 194 203 210 215 228 264 225 240 326 23 32 4 350 215 254 207
231 232 239 243 242 242 244 244 243 244 245 244 240 220 206 199 195 196 198 200 196 191 182 178 174 179 196 192 181 182 189 198 208 210 213 233 250 235 240 326 13 16 360 353 254 204 237
237 233 233 241 242 242 242 244 245 246 245 243 241 221 201 188 186 187 190 196 198 197 189 178 175 172 184 177 201 198 186 199 206 219 229 236 250 235 180 338 337 338 341 356 7 286 255
239 236 234 237 241 241 240 241 240 239 242 245 236 224 198 183 184 190 187 180 182 191 197 190 178 178 180 187 188 202 190 193 206 215 214 199 204 166 327 347 338 327 325 2 15 32 310
242 241 238 235 238 242 240 237 238 238 234 231 232 220 198 186 189 193 183 188 188 169 177 178 180 182 174 167 183 173 181 189 197 189 179 195 188 158 345 338 330 327 330 343 333 349 0
238 242 242 239 236 238 240 237 236 236 234 229 226 217 199 192 192 191 197 202 175 156 155 173 176 188 192 170 154 177 190 195 202 194 187 210 152 178 320 329 335 315 327 329 334 334 324
246 240 243 243 240 237 238 237 235 232 231 227 222 215 203 194 197 198 199 197 175 152 131 156 180 199 217 156 106 184 154 170 196 195 194 224 205 249 288 293 358 326 316 311 305 316 324
249 244 240 241 241 238 236 234 234 233 229 226 220 214 205 200 206 204 201 197 175 148 85 137 151 166 169 151 120 129 137 122 104 182 198 211 218 247 256 255 302 340 337 309 307 303 300
257 247 243 241 240 238 237 234 232 230 228 223 219 212 206 206 203 201 193 186 168 168 134 153 142 151 147 144 140 134 145 148 143 199 222 184 253 280 281 253 272 305 304 298 314 295 298
267 250 242 239 240 239 237 236 232 229 225 221 216 213 207 206 200 190 188 173 170 208 153 158 166 166 159 154 151 138 146 133 191 172 219 307 43 347 248 237 258 280 303 335 5 19 234
282 260 248 241 237 240 238 236 234 229 225 220 216 209 207 207 193 187 177 169 182 110 186 152 157 163 175 171 173 176 195 225 163 207 239 24 45 26 153 161 33 326 297 299 246 264 293
290 277 259 251 242 238 239 237 233 229 224 220 214 206 204 207 193 190 185 183 131 121 132 201 159 145 162 186 197 213 220 215 190 203 197 43 115 28 14 221 264 334 343 328 260 279 304
300 286 277 260 253 242 237 235 231 227 220 216 211 203 207 198 196 197 193 182 130 109 100 172 169 177 184 196 208 207 227 182 220 226 248 245 293 4 23 329 297 281 310 299 300 137 314
308 295 286 280 261 251 240 235 226 222 213 206 202 202 201 196 197 203 202 183 128 114 107 154 188 156 158 66 223 217 221 215 217 226 227 234 241 278 336 70 30 21 45 21 330 293 170
304 300 293 288 279 256 246 236 223 211 204 194 191 192 194 193 203 212 208 197 168 143 125 96 160 169 168 104 114 215 230 238 266 247 231 218 227 231 98 329 303 34 21 25 8 305 280
289 294 295 293 288 270 249 237 225 202 191 183 182 179 160 177 198 221 224 223 214 159 156 137 190 182 191 188 116 147 161 169 178 175 183 189 200 158 263 261 305 330 349 348 1 5 72
273 275 283 288 287 274 262 239 227 198 185 174 179 177 181 191 193 207 224 225 218 214 205 197 230 218 199 202 198 162 164 170 185 201 204 205 199 59 224 275 293 314 336 355 11 22 336
262 267 269 274 273 264 262 241 227 200 183 177 172 172 186 201 176 209 210 193 188 212 218 230 236 239 233 216 206 210 197 201 203 206 207 216 207 193 166 187 316 345 336 23 51 19 348
259 259 262 264 262 255 248 243 222 206 192 191 193 177 187 179 184 233 207 192 175 174 232 213 225 238 240 234 231 227 218 210 212 214 213 187 176 178 179 216 251 273 287 308 342 337 332
262 258 259 258 257 253 238 235 226 216 203 201 201 195 203 198 194 212 204 210 195 203 231 210 225 223 233 235 230 230 231 223 222 211 212 207 198 211 222 234 248 263 278 302 307 320 323
261 262 259 258 253 249 244 233 231 227 213 207 207 206 206 202 188 150 158 183 199 189 226 202 195 218 220 217 217 227 245 245 237 226 231 243 251 261 245 264 228 271 276 293 286 285 303
260 256 258 258 256 250 246 242 235 228 221 218 216 218 221 226 224 216 175 186 171 158 156 173 184 205 222 231 231 240 250 258 260 262 263 265 265 261 245 255 269 268 285 271 270 279 292
262 254 250 253 255 253 249 247 245 239 226 224 223 226 235 234 243 245 222 183 182 201 206 208 204 216 234 249 254 270 273 273 276 270 274 263 255 256 239 232 220 257 256 263 248 241 91
258 251 248 244 250 252 250 247 246 243 238 233 230 229 235 241 243 249 243 226 216 227 239 245 259 264 262 259 256 257 265 266 258 258 256 243 274 258 248 241 226 203 204 242 236 243 251
249 243 243 240 239 244 245 246 245 245 242 239 233 233 235 237 239 239 245 231 223 230 240 253 268 260 243 242 242 247 254 247 247 247 260 264 261 248 235 232 201 209 223 233 248 240 245
251 234 237 237 234 239 240 240 243 245 245 239 237 234 237 238 236 238 237 241 232 236 244 250 255 260 246 240 235 224 234 237 234 229 233 229 250 241 233 223 222 235 263 269 248 248 259
Height
3158 3158 3159 3159 3159 3160 3160 3160 3160 3161 3162 3162 3163 3164 3165 3167 3168 3170 3171 3172 3173 3174 3176 3178 3182 3184 3188 3190 3192 3194 3194 3196 3197 3197 3198 3198 3198 3196 3197 3198 3197 3196 3194 3194 3193 3194 3192
3157 3157 3158 3158 3159 3160 3160 3160 3160 3160 3161 3162 3163 3163 3164 3166 3167 3169 3170 3172 3173 3175 3177 3179 3182 3184 3188 3191 3192 3195 3195 3196 3197 3199 3200 3200 3200 3199 3198 3199 3199 3197 3195 3194 3194 3195 3193
3156 3156 3157 3157 3158 3159 3159 3159 3159 3160 3160 3161 3161 3162 3163 3164 3166 3168 3170 3172 3173 3174 3177 3179 3182 3185 3187 3191 3192 3194 3196 3197 3198 3199 3201 3201 3200 3200 3199 3198 3199 3197 3196 3194 3194 3194 3194
3154 3154 3155 3156 3157 3158 3158 3159 3159 3160 3160 3160 3161 3161 3162 3163 3165 3167 3169 3171 3172 3174 3176 3179 3181 3184 3187 3189 3191 3193 3196 3198 3198 3199 3201 3201 3200 3200 3199 3199 3199 3198 3196 3195 3193 3193 3195
3151 3153 3154 3154 3155 3156 3157 3158 3158 3159 3159 3160 3160 3161 3162 3163 3164 3166 3167 3169 3171 3173 3176 3178 3181 3183 3185 3188 3191 3192 3194 3196 3198 3199 3199 3199 3199 3199 3201 3200 3199 3197 3196 3194 3195 3194 3194
3149 3150 3152 3153 3154 3155 3156 3157 3157 3158 3158 3159 3160 3160 3161 3163 3164 3165 3166 3168 3170 3172 3174 3177 3180 3185 3185 3187 3188 3190 3192 3194 3196 3198 3199 3199 3198 3199 3201 3201 3200 3198 3196 3195 3195 3194 3193
3148 3149 3150 3151 3152 3153 3154 3155 3156 3157 3157 3158 3159 3159 3161 3162 3163 3165 3167 3168 3172 3173 3173 3176 3178 3179 3182 3184 3186 3187 3190 3192 3194 3197 3198 3198 3198 3199 3200 3200 3199 3199 3198 3195 3195 3194 3194
3146 3147 3148 3149 3150 3151 3152 3153 3154 3155 3157 3158 3158 3159 3160 3161 3163 3164 3167 3166 3168 3170 3172 3174 3176 3179 3181 3183 3184 3185 3188 3191 3192 3195 3196 3198 3197 3199 3199 3199 3198 3196 3196 3194 3193 3193 3192
3145 3145 3147 3147 3148 3149 3150 3151 3153 3154 3156 3157 3158 3159 3159 3161 3162 3164 3165 3167 3168 3170 3172 3174 3176 3178 3181 3183 3183 3184 3187 3189 3191 3193 3195 3195 3198 3197 3198 3198 3198 3196 3195 3193 3193 3191 3190
3144 3143 3144 3145 3146 3147 3148 3149 3151 3152 3154 3155 3156 3158 3159 3160 3164 3163 3165 3167 3169 3171 3172 3175 3176 3178 3180 3181 3183 3183 3186 3188 3189 3192 3194 3195 3196 3196 3196 3196 3196 3194 3193 3192 3191 3190 3190
3143 3142 3142 3143 3144 3144 3145 3147 3149 3150 3152 3153 3155 3157 3158 3160 3161 3163 3166 3167 3169 3171 3172 3176 3175 3176 3178 3182 3184 3184 3186 3187 3188 3190 3194 3194 3193 3194 3194 3194 3193 3193 3192 3190 3188 3187 3187
3141 3141 3141 3141 3141 3142 3143 3144 3146 3148 3149 3151 3153 3155 3156 3158 3160 3163 3165 3167 3170 3173 3171 3173 3175 3176 3178 3180 3182 3183 3185 3187 3188 3189 3191 3192 3192 3192 3192 3192 3192 3191 3190 3188 3185 3184 3185
3141 3140 3140 3139 3140 3140 3141 3142 3143 3145 3147 3149 3151 3153 3155 3157 3160 3162 3164 3167 3171 3169 3172 3174 3173 3175 3178 3180 3182 3182 3184 3185 3186 3189 3190 3190 3191 3189 3187 3190 3190 3189 3189 3187 3187 3187 3187
3140 3139 3138 3138 3138 3138 3139 3139 3140 3142 3144 3147 3149 3151 3153 3155 3158 3161 3164 3168 3169 3168 3170 3171 3172 3174 3177 3179 3181 3182 3184 3184 3186 3188 3189 3189 3191 3188 3188 3189 3190 3189 3189 3190 3192 3193 3186
3139 3139 3137 3137 3136 3136 3137 3137 3138 3139 3141 3144 3147 3149 3151 3153 3157 3160 3164 3166 3166 3167 3168 3169 3172 3174 3176 3179 3182 3182 3183 3184 3185 3187 3189 3189 3190 3190 3189 3190 3191 3190 3189 3189 3188 3187 3186
3138 3137 3137 3136 3135 3135 3135 3135 3136 3137 3139 3142 3145 3147 3148 3152 3155 3158 3162 3163 3166 3166 3166 3168 3171 3173 3175 3178 3180 3181 3182 3182 3183 3185 3187 3189 3189 3190 3190 3191 3190 3190 3191 3188 3187 3188 3189
3137 3136 3136 3135 3134 3133 3133 3133 3134 3135 3137 3139 3143 3145 3148 3150 3154 3156 3158 3162 3164 3165 3166 3169 3171 3172 3174 3176 3177 3178 3180 3180 3181 3183 3184 3186 3188 3190 3190 3190 3190 3191 3189 3188 3188 3187 3187
3136 3135 3135 3134 3133 3132 3132 3132 3132 3133 3135 3138 3140 3143 3146 3148 3153 3152 3155 3159 3161 3164 3166 3167 3169 3172 3172 3174 3172 3174 3177 3178 3178 3180 3180 3183 3186 3187 3189 3190 3190 3190 3188 3188 3187 3187 3186
3135 3134 3134 3133 3132 3131 3131 3130 3131 3132 3134 3136 3138 3141 3143 3146 3149 3151 3154 3156 3158 3162 3164 3166 3167 3168 3170 3172 3173 3173 3175 3177 3177 3179 3180 3182 3183 3183 3186 3190 3189 3189 3188 3189 3187 3184 3185
3134 3133 3132 3132 3131 3131 3130 3129 3129 3130 3132 3136 3139 3141 3142 3144 3146 3148 3150 3152 3156 3159 3161 3162 3164 3166 3168 3170 3171 3173 3173 3174 3176 3177 3178 3180 3180 3182 3186 3188 3188 3188 3188 3187 3187 3186 3185
3132 3132 3131 3130 3130 3129 3129 3128 3128 3129 3131 3135 3136 3137 3139 3142 3145 3146 3148 3150 3153 3156 3158 3160 3161 3164 3166 3168 3169 3170 3172 3173 3174 3175 3176 3178 3179 3181 3182 3184 3185 3187 3187 3186 3185 3185 3184
3130 3130 3129 3129 3128 3128 3128 3127 3127 3128 3130 3133 3136 3138 3141 3142 3143 3144 3144 3147 3150 3152 3153 3156 3159 3161 3163 3165 3167 3168 3170 3171 3172 3174 3175 3176 3178 3179 3180 3181 3183 3184 3185 3184 3183 3181 3181
3128 3127 3127 3127 3126 3126 3126 3126 3126 3127 3129 3131 3134 3137 3140 3141 3143 3143 3143 3145 3147 3149 3150 3152 3155 3158 3159 3162 3164 3165 3167 3169 3171 3173 3173 3175 3176 3177 3177 3178 3178 3181 3181 3181 3180 3179 3178
3125 3125 3125 3125 3124 3124 3124 3125 3125 3126 3127 3130 3132 3135 3137 3139 3141 3141 3142 3144 3144 3147 3149 3150 3152 3154 3157 3159 3162 3164 3165 3167 3169 3170 3172 3173 3174 3175 3176 3176 3175 3176 3177 3177 3176 3175 3174
3122 3122 3122 3123 3123 3122 3122 3122 3123 3124 3125 3127 3129 3133 3134 3136 3138 3140 3142 3143 3144 3146 3147 3148 3150 3152 3154 3158 3160 3161 3163 3165 3166 3168 3169 3170 3171 3171 3171 3170 3170 3171 3172 3173 3173 3171 3169
3119 3118 3119 3120 3120 3120 3120 3120 3120 3121 3123 3124 3126 3128 3131 3133 3135 3137 3140 3142 3143 3144 3147 3147 3149 3150 3152 3154 3157 3158 3160 3161 3162 3163 3164 3165 3165 3166 3165 3165 3164 3164 3167 3168 3168 3166 3166
3114 3114 3115 3116 3117 3118 3118 3118 3118 3119 3119 3120 3122 3124 3127 3128 3131 3133 3136 3139 3140 3142 3143 3145 3146 3148 3149 3150 3152 3154 3156 3158 3158 3157 3160 3160 3160 3160 3159 3159 3159 3158 3160 3162 3163 3165 3161
3108 3110 3111 3112 3114 3115 3116 3116 3116 3116 3117 3118 3119 3120 3122 3123 3126 3128 3130 3134 3136 3138 3140 3142 3144 3144 3146 3147 3148 3149 3151 3152 3153 3154 3154 3155 3156 3156 3155 3155 3156 3156 3157 3158 3157 3156 3157
3102 3104 3107 3108 3110 3111 3112 3113 3113 3114 3114 3115 3115 3116 3118 3120 3123 3123 3126 3129 3132 3133 3136 3137 3139 3140 3142 3143 3145 3146 3148 3149 3150 3152 3152 3153 3153 3153 3154 3152 3151 3151 3152 3153 3153 3154 3154